Dewpoint
2 2 2 4 7 7 7 6 4 0 -5 -4 -3 0 -2 -1 -1 0 3 2 1 -2 -1 -1 1 2 2 2 1 2 4 4 3 2 1 -2 -1 -2 -2 -3 -3 -3 -3 -3 -2
1 2 1 3 4 5 7 6 3 -2 -5 -1 -2 2 -2 -1 2 2 5 5 1 1 1 1 1 1 -0 -0 0 1 3 3 1 0 0 -0 -0 -1 -1 -2 -2 -3 -3 -3 -3
1 1 1 0 3 4 7 6 2 -4 1 -2 -0 1 -1 1 2 3 5 5 2 -0 2 1 1 1 1 1 -0 0 2 1 0 0 -0 -0 -1 -1 -1 -1 -2 -3 -4 -4 -4
-4 -1 -0 1 3 3 6 5 1 -1 3 1 0 0 -0 2 3 5 4 5 -1 0 2 1 1 0 0 1 0 1 0 -0 -0 -1 -1 -0 -1 -0 -1 -1 -2 -3 -3 -4 -4
-4 -2 0 2 3 6 6 3 -3 1 2 1 0 -0 2 2 4 3 2 1 1 0 1 1 0 1 1 -0 -1 -1 -1 -2 -2 -2 -2 -3 -1 -1 -1 -2 -3 -4 -4 -4 -4
-3 -1 1 5 4 3 6 2 3 3 2 1 -0 2 1 2 3 1 1 -0 -0 -0 -1 -1 -2 -2 -1 -1 -1 -1 -2 -2 -2 -3 -3 -2 -3 -3 -3 -3 -3 -4 -4 -4 -4
-4 -1 3 4 3 2 3 1 3 2 1 0 2 1 -0 2 1 0 -0 -0 -0 -1 -2 -2 -2 -2 -1 -1 -1 -2 -1 -2 -3 -3 -3 -3 -2 -3 -4 -4 -4 -4 -5 -6 -6
-5 -3 3 5 2 4 5 4 1 -3 -2 1 1 0 1 0 -0 -1 -1 -1 -1 -2 -2 -1 -1 -2 -1 -1 -2 -1 -2 -0 -4 -3 -4 -3 -1 -6 -6 -5 -5 -5 -5 -5 -5
-3 0 3 4 4 4 2 -4 -2 -1 1 1 1 -3 -1 1 1 -1 -1 -1 -1 -1 -1 -0 -1 -1 -1 -1 -2 -2 -1 -1 -1 -3 -3 -3 -2 -5 -6 -6 -5 -6 -7 -7 -7
3 3 4 4 4 -2 -1 1 1 1 0 -1 -1 -1 -1 -1 -1 -1 -2 -1 -1 -1 -0 -0 -0 -1 -1 -3 -2 -3 -1 -2 -1 -3 -4 -2 -2 -4 -5 -5 -5 -6 -7 -8 -8
-1 4 4 1 0 1 1 0 -1 -1 -1 -1 -1 -1 -1 -2 -1 -2 -1 -1 -1 -1 0 1 1 1 -1 -1 -2 -2 -2 -0 -1 -2 -1 -1 -2 -4 -7 -7 -7 -7 -7 -7 -8
3 4 2 2 2 2 1 1 1 -1 -1 -1 -2 -2 -2 -1 -1 -1 -2 -1 -1 0 1 -2 1 -1 -1 -0 -0 0 1 0 -2 -3 -3 -3 -3 -5 -6 -6 -6 -6 -6 -7 -7
4 4 3 3 2 1 1 -0 -1 -2 -2 -1 -1 -1 -1 -1 -1 -2 -2 -2 -1 -0 -0 -0 -2 -3 -1 -1 -0 -1 -1 -2 -2 -3 -3 -2 -2 -4 -6 -6 -7 -6 -6 -6 -6
2 2 3 3 1 0 0 -0 -2 -1 -3 -1 -1 -2 -1 -1 -1 -1 -1 -1 -2 -1 -1 -1 -3 -2 -1 -1 -1 -3 -3 -2 -1 0 -1 -3 0 -4 -6 -6 -8 -7 -0 -0 -1
1 1 1 1 0 -0 -1 -1 -2 -2 -5 -5 -1 -1 -1 -0 -2 -3 -1 -2 -1 -2 -2 -2 -2 -2 -1 -1 -2 -1 -1 0 0 1 1 -1 1 -3 -6 -4 -1 0 1 1 1
-0 -1 -2 -2 -3 -2 -2 -1 -2 -4 -4 -2 -1 -1 -2 -1 -2 -3 -2 -1 -2 -2 -3 -1 -3 -3 -2 -3 -3 -3 -0 -3 -3 0 0 -3 -0 -1 -3 -1 2 1 2 2 1
-0 -1 -3 -2 -2 -2 -3 -2 -4 -4 -4 -3 -1 -1 -1 -2 -2 -2 -2 -2 -2 -4 -4 -3 -3 -3 -2 -0 -1 0 -2 -4 -3 -4 -1 -4 -0 -2 -3 3 3 3 2 2 2
-3 -4 -3 -3 -2 -1 -0 -4 -5 -2 -1 -4 -2 -2 -1 -2 -2 -2 -3 -2 -3 -3 -3 -1 -0 -3 -1 1 2 2 -0 -1 1 -2 -1 -2 2 3 3 1 1 1 3 2 4
-0 -4 -3 -3 -2 -1 -2 -3 -2 -2 -2 -2 -4 -5 -3 -1 -3 -6 -4 -3 -3 -3 -2 -0 -1 -3 -1 -0 2 2 2 1 -0 -4 -0 -1 -0 1 2 1 0 1 2 3 5
-2 -4 -3 -2 -1 -2 -2 -1 -1 -2 -3 -2 -2 -3 -4 -4 -8 -6 -6 -4 -2 -3 -3 -2 1 -3 -3 1 2 3 3 2 1 2 2 1 2 5 4 2 2 2 4 4 5
-2 -6 -2 -2 -2 -3 -2 -2 -1 -2 -2 -1 -1 -1 -2 -1 -3 -4 -6 -6 -3 -4 -3 -1 -0 -2 -2 1 3 4 4 4 3 3 6 5 3 4 2 2 1 2 5 6 5
-5 -5 -2 -3 -3 -3 -2 -2 -2 -1 -2 -3 -2 -2 -2 -3 -3 -4 -4 -5 -5 -4 -2 -2 -0 1 -1 -2 1 3 5 5 6 5 5 5 4 4 1 2 1 3 5 5 6
-4 -4 -3 -3 -3 -3 -3 -3 -3 -2 -3 -3 -2 -3 -3 -3 -2 -3 -3 -4 -4 -4 -2 -4 -2 1 -1 -2 -0 2 2 5 4 5 5 6 5 3 2 2 1 4 4 5 6
-2 -4 -3 -3 -2 -4 -3 -3 -3 -4 -3 -3 -3 -3 -3 -2 -4 -4 -3 -4 -4 -4 -2 -2 -2 0 2 0 2 3 2 3 5 5 5 5 5 3 2 1 1 3 4 4 4
-3 -2 -2 -4 -3 -3 -3 -3 -2 -2 -3 -3 -3 -2 -2 -1 -1 -2 -2 -3 -3 -3 -2 -3 0 -1 -1 -1 -0 2 2 2 4 5 5 5 5 3 1 0 -0 3 3 4 4
-4 -3 -3 -3 -3 -4 -4 -2 -2 -3 -2 -2 -2 -2 -2 -1 -1 -0 -1 -2 -2 -2 -3 -2 1 0 1 -1 -1 2 1 1 2 4 4 4 5 3 2 2 1 2 2 3 3
-8 -4 -3 -4 -3 -3 -4 -3 -2 -3 -3 -3 -3 -2 -1 -1 -2 -2 -3 -2 -2 -1 -2 -1 -1 1 0 -1 -1 -0 -0 1 2 2 3 5 3 2 3 3 2 2 2 2 2
Wind_Speed
9 10 11 12 5 3 15 11 9 5 3 3 6 7 10 7 8 10 9 8 7 5 2 4 9 5 7 5 4 5 1 2 3 5 3 3 5 2 6 5 8 5 7 3 4
9 8 5 10 22 8 19 12 8 5 4 6 10 8 9 9 10 10 9 4 4 3 4 6 7 4 4 2 1 3 3 6 4 1 3 10 4 8 5 13 11 18 16 15 16
6 9 8 5 9 18 16 13 9 5 8 9 10 7 10 12 8 6 5 3 3 4 3 4 4 5 2 2 1 2 4 3 3 8 12 11 19 13 8 7 14 15 22 23 25
8 8 5 7 1 12 5 9 8 10 8 10 9 11 12 6 4 6 4 3 4 6 3 4 4 3 2 1 2 3 5 6 4 16 16 8 16 12 19 23 27 26 21 24 28
7 7 7 2 4 15 15 11 8 10 10 10 10 13 10 11 8 4 4 6 5 4 3 4 5 2 1 3 6 3 3 9 12 15 16 16 14 18 28 28 26 27 28 29 33
8 8 5 2 15 14 5 7 12 10 10 10 12 10 7 8 9 3 3 3 4 4 3 3 3 2 2 2 0 7 10 15 12 18 17 13 20 15 25 14 23 27 30 35 39
8 6 5 16 16 11 11 9 10 8 10 14 14 12 17 9 6 2 1 3 3 2 1 2 1 3 1 3 5 8 7 7 6 10 5 12 16 20 35 32 32 31 36 40 40
7 5 7 23 17 17 13 14 9 10 15 17 13 7 8 7 4 3 4 4 5 1 0 3 5 2 1 5 7 4 3 4 5 8 4 2 23 15 26 16 25 28 32 34 38
10 5 19 15 16 16 16 15 17 21 19 13 8 7 5 2 1 2 3 4 4 6 3 2 4 2 2 3 4 5 4 4 7 4 4 2 19 0 3 19 30 35 36 38 40
21 21 15 12 16 21 25 26 23 18 15 11 9 7 5 3 2 2 2 2 1 2 3 3 3 3 3 4 3 3 6 5 7 5 11 15 29 30 31 27 30 34 39 38 38
14 18 19 21 24 31 29 25 12 9 20 10 9 13 5 4 4 5 4 3 2 1 2 3 2 5 6 6 5 4 3 12 16 9 8 18 27 31 28 24 29 35 37 40 42
16 16 21 27 28 26 10 7 7 11 11 12 11 9 5 2 1 4 4 3 0 1 2 5 5 8 4 6 7 7 11 17 12 8 5 16 29 34 25 29 34 36 37 38 41
16 17 22 25 15 8 8 17 15 7 6 6 8 5 3 4 2 3 5 4 1 1 2 5 6 4 4 7 9 11 7 9 10 9 9 12 16 11 2 10 20 25 30 34 38
17 15 17 17 6 10 13 13 9 5 4 7 5 4 3 2 1 3 3 1 2 2 2 5 4 3 5 7 6 4 3 8 8 8 3 6 9 16 7 6 7 11 18 25 28
15 9 7 4 6 5 7 9 4 5 5 5 4 3 3 1 4 4 4 3 3 3 4 7 2 4 4 5 5 8 4 8 6 8 6 4 5 8 8 8 6 10 21 27 28
13 10 8 7 7 7 6 6 1 6 2 4 2 2 4 3 2 7 3 2 3 2 3 8 5 4 5 4 5 9 6 5 3 1 3 4 6 7 5 6 13 17 29 27 28
14 13 8 8 12 8 6 3 5 5 2 3 1 2 1 3 2 5 4 5 2 5 4 6 3 3 3 4 3 4 4 4 5 3 6 1 2 13 13 13 21 23 32 33 33
13 13 14 11 9 7 2 5 7 1 2 3 4 5 3 6 5 7 3 4 1 3 2 4 6 1 2 4 4 4 4 3 4 3 6 1 6 6 4 24 25 23 27 28 32
6 9 11 9 7 5 3 5 5 3 1 2 4 5 4 3 1 5 1 3 4 4 3 4 5 4 5 3 3 1 2 3 2 2 3 3 7 5 16 25 24 28 26 24 21
4 7 11 11 8 5 5 3 1 2 3 3 2 2 0 3 4 4 2 3 2 1 4 1 6 3 5 1 6 4 2 2 1 4 5 4 4 11 25 26 26 24 12 16 14
3 3 9 9 6 6 3 2 3 2 1 1 1 1 3 2 2 1 3 4 2 2 3 3 1 7 3 0 3 2 3 3 2 3 3 5 5 7 19 20 21 21 20 14 13
3 3 7 3 4 3 1 1 2 2 3 2 1 1 2 1 1 1 3 7 3 1 3 2 2 5 6 3 4 2 4 3 2 5 3 3 5 11 18 17 20 24 26 21 6
4 2 9 2 3 1 1 2 2 2 2 2 2 1 2 2 2 3 4 5 3 1 2 1 2 5 7 4 1 2 5 5 5 3 3 5 6 15 22 24 31 23 24 27 26
2 3 5 8 5 3 2 3 0 2 2 1 2 2 2 2 3 4 3 3 1 3 3 3 2 4 3 7 2 5 7 4 4 3 7 5 12 19 23 26 28 33 27 29 35
3 2 2 2 4 2 1 1 3 1 1 2 2 2 2 2 3 2 3 5 3 2 1 2 3 4 9 14 6 6 5 6 3 6 3 12 12 11 16 17 25 33 36 40 40
2 1 1 1 3 2 3 2 2 2 3 2 2 2 2 3 5 4 1 3 4 4 1 0 3 4 5 5 0 5 7 6 1 3 3 10 6 7 15 24 26 33 34 37 42
2 2 1 1 1 2 3 3 4 2 4 4 4 2 4 6 8 12 12 10 7 2 2 1 2 4 5 7 6 3 4 3 3 3 3 4 5 9 9 16 24 27 31 31 33
Wind_Direction
323 329 306 270 194 244 218 219 211 213 186 149 143 127 138 127 107 103 78 76 73 29 122 145 165 167 173 128 112 118 88 211 221 164 247 30 35 1 327 283 315 276 301 231 276
332 344 327 275 248 351 208 201 200 208 153 143 147 136 138 119 104 83 74 84 57 69 123 131 127 144 118 110 132 126 163 205 212 236 297 304 309 314 294 288 277 288 276 272 277
337 326 343 317 255 248 190 181 171 180 128 142 148 150 135 128 97 64 67 19 25 137 133 135 100 94 84 88 170 192 212 234 253 279 294 290 298 289 260 247 247 267 283 285 283
360 346 324 9 315 234 254 150 154 151 133 143 133 133 132 130 94 39 38 8 89 137 126 114 78 77 74 199 269 287 250 260 275 293 291 280 290 274 262 259 275 277 276 279 279
8 0 31 34 155 132 156 149 139 126 140 136 127 133 120 87 86 70 80 79 88 129 101 69 61 54 5 338 329 229 299 313 308 306 295 293 264 269 265 269 269 273 272 270 275
20 36 38 188 154 161 134 137 123 137 132 136 127 124 105 78 97 62 97 90 89 94 102 79 70 40 316 310 308 314 303 298 299 293 284 274 276 261 264 274 272 269 267 270 273
38 61 71 124 123 182 194 133 146 140 139 130 122 115 88 85 76 28 125 77 66 62 105 78 305 247 305 306 328 302 307 313 258 267 254 282 270 247 268 271 266 270 274 275 275
27 80 71 125 129 144 165 137 125 126 127 128 116 113 83 93 73 82 112 96 58 35 317 12 349 316 296 321 345 337 346 328 304 350 281 109 274 274 277 267 277 277 274 272 273
24 125 135 122 116 120 121 116 111 111 112 114 102 91 70 128 64 68 38 40 83 53 103 11 351 44 38 61 3 1 280 286 312 321 303 203 279 10 265 302 295 287 280 276 274
90 100 130 108 125 118 116 111 107 108 101 86 68 74 73 77 72 39 357 228 74 13 21 29 31 41 37 70 240 265 292 267 261 290 303 282 274 273 277 273 266 266 266 266 264
110 83 114 118 121 123 120 115 102 75 66 66 71 83 86 85 75 57 53 61 185 82 31 20 340 269 247 220 235 271 242 268 272 267 277 273 270 281 282 268 262 259 255 256 257
105 93 118 124 128 127 106 90 93 119 71 71 73 79 81 46 29 30 15 12 57 231 74 9 264 246 244 252 245 254 266 272 284 271 226 270 276 281 280 262 260 260 261 257 258
85 106 126 128 104 122 116 113 116 116 91 48 50 44 29 20 17 354 357 329 276 277 185 177 243 332 264 254 258 255 246 275 270 309 251 285 280 270 252 251 266 260 261 266 262
69 101 134 142 107 111 125 131 131 48 81 339 0 7 352 343 333 319 317 347 356 315 334 244 275 242 275 255 197 294 267 262 273 324 286 61 293 314 321 321 305 307 302 294 290
71 90 130 188 127 129 142 158 152 353 63 286 315 328 330 4 318 13 306 337 267 266 84 260 250 244 278 242 163 242 252 272 276 260 311 211 233 277 325 318 287 286 314 296 293
56 59 68 90 105 114 145 180 296 44 281 328 294 337 21 14 19 325 356 292 290 281 235 250 279 231 222 266 222 267 317 16 3 325 275 225 175 278 286 283 300 298 302 292 293
44 54 69 108 98 90 128 132 33 94 17 283 253 327 130 319 13 28 11 4 28 17 356 326 236 254 225 322 341 74 54 329 353 13 233 260 191 259 286 318 310 306 304 301 302
35 69 92 74 60 32 142 51 67 263 208 250 10 8 5 14 25 355 24 351 306 74 15 10 342 186 163 189 253 309 142 154 275 273 283 105 233 261 311 321 313 316 314 304 311
64 89 63 37 359 2 114 54 197 229 204 89 27 59 323 358 36 33 308 241 244 160 134 1 279 297 202 195 155 348 197 176 246 220 302 243 280 319 335 331 336 329 317 309 326
117 109 36 12 14 83 73 131 295 162 105 79 129 130 267 283 32 46 336 222 268 184 139 248 295 269 299 95 200 229 336 347 247 304 295 284 295 322 338 335 329 327 309 301 304
147 99 7 11 39 54 100 228 94 73 26 178 319 320 250 281 165 270 259 290 240 346 151 159 148 292 313 309 257 313 314 229 235 229 297 308 308 325 329 323 322 326 349 317 291
55 57 357 32 62 74 66 348 13 42 9 336 282 286 228 232 280 245 243 213 193 337 325 219 166 278 257 277 224 244 302 295 299 311 272 275 293 340 329 333 334 343 347 2 40
41 1 31 94 106 22 150 46 75 38 32 28 334 76 300 266 325 207 223 272 216 154 232 160 278 322 349 358 89 358 313 340 300 264 280 320 314 331 340 348 350 355 1 23 36
29 17 19 45 79 105 110 140 190 322 199 339 251 15 3 328 237 291 298 302 301 202 256 182 229 219 225 237 310 308 326 350 330 320 311 324 323 345 348 346 347 360 14 33 41
41 52 41 300 356 40 39 256 161 234 298 15 123 83 269 262 320 295 315 314 305 321 123 135 261 205 255 258 237 245 287 328 356 320 347 318 335 356 342 341 335 353 16 27 33
87 116 119 46 322 342 353 230 228 253 188 250 245 278 245 233 204 234 129 254 265 331 70 95 272 344 284 319 331 258 255 289 270 318 308 315 317 23 1 355 359 2 15 27 26
56 141 176 275 47 76 232 250 236 193 235 236 213 260 253 235 235 256 251 237 246 293 289 339 7 358 276 317 315 313 233 227 273 206 242 315 294 322 348 10 6 7 15 24 29
Height
1471 1470 1469 1472 1477 1476 1481 1484 1486 1486 1484 1483 1486 1489 1490 1493 1494 1495 1496 1498 1499 1498 1498 1499 1501 1503 1504 1506 1507 1509 1516 1520 1513 1513 1507 1506 1506 1507 1507 1506 1506 1506 1506 1507 1508
1469 1469 1473 1474 1473 1475 1479 1484 1484 1485 1484 1485 1486 1489 1491 1494 1496 1497 1499 1499 1499 1499 1500 1500 1502 1504 1506 1507 1509 1509 1517 1513 1509 1508 1508 1506 1507 1506 1507 1505 1504 1503 1503 1503 1504
1469 1467 1470 1471 1471 1474 1475 1480 1482 1484 1484 1486 1488 1491 1493 1494 1497 1501 1501 1501 1500 1499 1501 1502 1503 1505 1507 1508 1509 1510 1513 1510 1508 1508 1508 1507 1504 1505 1502 1500 1500 1500 1499 1498 1498
1465 1465 1467 1469 1471 1473 1478 1479 1482 1483 1485 1489 1490 1492 1493 1495 1503 1503 1502 1501 1500 1500 1503 1504 1506 1507 1509 1510 1510 1512 1508 1509 1508 1507 1506 1504 1503 1499 1498 1493 1496 1496 1495 1494 1493
1466 1465 1465 1468 1472 1474 1478 1479 1482 1484 1487 1490 1491 1493 1495 1497 1502 1504 1503 1502 1502 1503 1504 1506 1508 1509 1510 1510 1510 1509 1508 1507 1506 1505 1503 1501 1498 1496 1484 1488 1490 1490 1490 1488 1487
1467 1466 1465 1466 1471 1473 1481 1483 1485 1486 1489 1491 1493 1497 1497 1498 1503 1506 1506 1505 1504 1505 1506 1507 1510 1510 1510 1510 1511 1509 1507 1505 1503 1502 1500 1499 1491 1493 1476 1483 1483 1482 1481 1481 1480
1470 1469 1467 1468 1469 1478 1484 1486 1488 1488 1491 1493 1495 1497 1498 1505 1506 1507 1507 1507 1506 1507 1507 1509 1510 1511 1510 1509 1509 1507 1507 1503 1499 1496 1495 1494 1483 1477 1474 1477 1474 1474 1472 1471 1470
1471 1469 1470 1472 1475 1481 1484 1487 1489 1491 1494 1495 1496 1498 1502 1507 1509 1509 1508 1508 1508 1508 1509 1510 1510 1510 1510 1510 1509 1509 1508 1509 1498 1497 1495 1495 1470 1470 1469 1471 1468 1466 1464 1462 1460
1471 1470 1475 1478 1481 1484 1486 1489 1492 1494 1496 1498 1500 1500 1508 1510 1510 1509 1510 1510 1509 1510 1510 1510 1511 1510 1510 1513 1520 1517 1524 1513 1506 1498 1498 1496 1476 1465 1466 1467 1465 1461 1457 1454 1452
1476 1476 1480 1482 1485 1487 1490 1494 1496 1498 1500 1501 1502 1506 1510 1512 1511 1511 1510 1510 1511 1511 1511 1512 1512 1513 1515 1523 1539 1529 1519 1512 1511 1502 1498 1496 1475 1456 1462 1465 1458 1452 1447 1443 1440
1482 1483 1484 1488 1489 1491 1493 1496 1500 1502 1503 1507 1510 1509 1511 1513 1513 1512 1511 1511 1511 1512 1514 1513 1515 1517 1515 1513 1513 1515 1524 1515 1500 1499 1498 1487 1469 1446 1450 1453 1446 1438 1434 1431 1428
1489 1489 1490 1491 1493 1496 1497 1497 1500 1507 1511 1511 1511 1512 1513 1514 1513 1512 1513 1514 1513 1515 1514 1519 1517 1510 1511 1511 1513 1513 1513 1504 1494 1491 1496 1482 1456 1433 1437 1431 1430 1427 1424 1422 1420
1495 1495 1497 1498 1499 1501 1501 1502 1504 1507 1510 1515 1514 1514 1514 1515 1514 1514 1514 1513 1512 1513 1514 1519 1510 1507 1508 1508 1510 1507 1508 1501 1500 1490 1484 1476 1449 1428 1425 1421 1418 1417 1416 1415 1413
1503 1502 1503 1504 1507 1505 1505 1504 1506 1507 1520 1519 1516 1516 1515 1514 1515 1514 1513 1514 1512 1513 1511 1513 1505 1505 1506 1506 1506 1520 1496 1496 1496 1497 1503 1478 1471 1425 1421 1420 1415 1412 1411 1409 1404
1508 1508 1508 1507 1506 1507 1508 1506 1506 1505 1546 1521 1517 1516 1515 1516 1516 1514 1513 1512 1512 1511 1515 1510 1505 1506 1505 1500 1498 1500 1493 1495 1495 1494 1491 1475 1484 1436 1428 1420 1415 1410 1404 1400 1397
1510 1509 1507 1507 1507 1508 1508 1508 1509 1526 1554 1526 1518 1517 1516 1515 1515 1513 1512 1513 1512 1511 1510 1507 1503 1503 1500 1495 1494 1490 1493 1498 1501 1492 1494 1477 1480 1446 1433 1424 1412 1406 1402 1395 1388
1512 1510 1509 1509 1510 1511 1511 1512 1528 1541 1524 1526 1521 1518 1520 1518 1515 1516 1516 1517 1520 1525 1526 1509 1500 1497 1497 1498 1492 1494 1506 1523 1513 1523 1492 1484 1478 1437 1421 1419 1412 1402 1394 1385 1380
1513 1512 1511 1511 1512 1512 1512 1516 1544 1523 1524 1520 1520 1521 1522 1521 1521 1521 1520 1524 1515 1521 1531 1525 1506 1501 1496 1495 1495 1494 1501 1510 1501 1515 1488 1475 1458 1427 1422 1413 1406 1400 1390 1381 1376
1514 1515 1515 1514 1513 1512 1513 1537 1534 1525 1521 1523 1524 1535 1527 1523 1527 1530 1531 1525 1518 1518 1528 1523 1515 1495 1492 1491 1496 1493 1495 1493 1501 1509 1492 1469 1440 1426 1419 1408 1399 1393 1386 1378 1374
1516 1514 1513 1514 1513 1512 1517 1526 1525 1522 1522 1524 1533 1528 1541 1534 1535 1535 1536 1517 1516 1515 1516 1523 1519 1497 1491 1490 1491 1490 1488 1491 1494 1485 1474 1452 1444 1425 1417 1411 1401 1390 1380 1375 1371
1514 1515 1515 1513 1513 1514 1529 1529 1522 1522 1522 1524 1524 1524 1525 1527 1530 1536 1531 1518 1515 1515 1516 1518 1523 1505 1495 1495 1492 1487 1484 1483 1483 1477 1459 1448 1445 1435 1431 1420 1406 1394 1379 1372 1372
1514 1515 1514 1512 1514 1519 1528 1523 1520 1521 1521 1521 1522 1522 1523 1522 1530 1535 1530 1523 1514 1516 1516 1516 1519 1516 1499 1489 1488 1488 1485 1480 1473 1467 1462 1459 1447 1437 1432 1422 1409 1394 1381 1373 1367
1517 1516 1515 1513 1525 1523 1519 1521 1521 1521 1521 1521 1520 1520 1520 1520 1525 1520 1520 1510 1513 1515 1515 1516 1522 1519 1499 1492 1488 1490 1485 1482 1476 1471 1465 1457 1450 1442 1428 1416 1408 1397 1385 1375 1368
1521 1522 1519 1517 1519 1521 1520 1519 1522 1521 1520 1520 1519 1518 1519 1519 1519 1518 1515 1509 1510 1512 1512 1513 1517 1510 1510 1500 1491 1491 1485 1481 1479 1471 1468 1461 1453 1448 1436 1424 1410 1401 1393 1382 1375
1522 1525 1525 1529 1523 1523 1524 1524 1520 1521 1521 1520 1519 1519 1519 1519 1520 1518 1516 1512 1508 1510 1510 1512 1515 1510 1499 1491 1492 1487 1485 1481 1481 1476 1471 1465 1457 1459 1450 1440 1425 1411 1398 1387 1381
1524 1524 1524 1524 1524 1524 1524 1522 1523 1522 1519 1520 1521 1518 1517 1518 1517 1518 1516 1516 1511 1508 1512 1511 1512 1507 1496 1483 1486 1484 1480 1479 1475 1474 1470 1465 1459 1459 1455 1445 1433 1420 1410 1402 1396
1524 1524 1524 1524 1525 1527 1525 1521 1518 1518 1518 1517 1517 1519 1517 1513 1513 1513 1512 1511 1511 1511 1510 1511 1515 1510 1509 1489 1485 1484 1477 1475 1473 1471 1473 1467 1463 1457 1454 1451 1442 1435 1425 1420 1414